SL-3 R/B, 5918

Orbit data source: Space-Track

SL-3 R/B, 5918 is space debris in LEO originally from a launch on Thu, 30 Mar 1972 UTC launched from the Plesetsk Missile And Space Complex (PKMTR). Debris objects in space refer to the collection of defunct objects orbiting the Earth. Examples of debris include non-operational satellites, rocket bodies, and fragments generated from explosions, collisions, or faulty payload assembly.

Loading next visibility...
SL-3 R/B details
Identifier
5918, 1972-022B
Orbit
LEO
Last TLE update13 hours ago
Origin
Flag of CISRVSN (CIS)
ManufacturerProgress
MissionSpacecraft
Bus & MotorBLOK-E, Unknown motor
Mass1,440 kg wet, 1,440 kg dry
Launch date (UTC)
1972-03-30 (53 years ago)
Launch vehicleUnknown
Launch site
Plesetsk Missile And Space Complex (PKMTR)
Object type
Payload
Rocket body
Debris
Shape & HBRCyl, 3.8 m
Radar Cross Section10.414 m², Large (>1 m²)

Expand to show TLE details & history

TLE from 13 hours ago
0 SL-3 R/B
1 05918U 72022B   24360.98902838  .00000337  00000-0  19420-3 0  9990
2 05918  81.2362 186.4688 0058411 161.6593 198.6700 14.06188109703973
Epoch: 2024-12-25T23:44Z
Definitive object data (Epoch: 2024-12-25T23:44:12.052Z)
Latitude-0.00008°
Longitude95.4437°
Altitude915.495 km
Speed7.374 km/s
True Right ascension12h 25m 52s
True Declination0° 00' 00"
Sunlit
Object was in daylight at TLE epoch
Visualization TLE readout
Latitude-41.7°
Longitude87.04772°
Altitude927.595 km
Speed7.367 km/s
Apparent Right ascension08h 17m 26s
Apparent Declination-83° 03' 40"
Sunlit
Object is in daylight
Visualization observer readout
Local Sidereal Time12:33:23
Azimuth187.773° SSW
Elevation-36.607°
Doppler factor1
Orbital elements
Apogee altitude911.96 km
Perigee altitude827.29 km
Semi-major axis7,247.762 km
Eccentricity0.0058411
Inclination81.2362°
RAAN186.4688°
Arg. of periapsis161.6593°
True anomaly198.45721°
Mean anomaly198.67°
Eccentric anomaly198.56346°
Mean motion3.51753 °/min
BSTAR0.0001942
Orbital period102.34 mins
Loading maneuver chart data...
Loading historical data...
Loading historical data...
Loading historical data...
Loading historical data...
Loading historical data...
Loading historical data...
Loading historical data...

SL-3 R/B Visibility forecast

Observer location: undefined°, undefined

Span
Click to sort rows by Start time (UTC) header in descending order
Start Az.
Max El. time (UTC)
Max El. Az.
Max El.
End time (UTC)
End Az.
11 mins2024-12-26 13:29:45.594Z190.244° SSW2024-12-26 13:35:45.594Z326.778° NNW44.64°2024-12-26 13:40:45.594Z7.632° NNE
9 mins2024-12-27 00:13:45.594Z356.133° N2024-12-27 00:17:45.594Z39.277° NE42.879°2024-12-27 00:22:45.594Z163.576° S
|